Weather in Mikhaylovo

Russia / Ivanovo Oblast     57°20′15″N   42°46′03″E
temp.,
°C
wind,
m/s
gust,
m/s
humid.,
%
clouds,
%
prec.,
mm/h
press.,
hPa
HPBL,
m
6 august, fri
fri600:00+17ese2354100 0.0 101766
03:00+16ese1162100 0.1 101627
06:00+16e3668100 0.1 1016212
09:00+18se496296 0.3 1016470
12:00+18sse587976 0.8 1016628
15:00+21s5763100 0.8 10151009
18:00+17sse4984100 0.1 1015382
21:00+15sse3799100 1.7 1016243
7 august, sat
sat700:00+15se4898100 7.3 1015339
03:00+15e4998100 13.3 1015326
06:00+15e51095100 0.1 1015513
09:00+17ese688362 0.1 1015617
12:00+20ese587426 0.7 1014800
15:00+19e498195 1.4 1014241
18:00+20e4970100 0.0 1014351
21:00+18e4880100 0.0 1015218
8 august, sun
sun800:00+17se3882100 0.0 1015171
03:00+18se41078100 0.0 1015230
06:00+19se41172100 0.0 1015276
09:00+19se41070100 0.0 1016311
12:00+25sse594969 0.0 1015561
15:00+30sse5731100 0.0 10151784
18:00+25s2249100 0.0 101514
21:00+21wsw4962100 0.0 1017221
9 august, mon
mon900:00+18wsw118097 0.3 101711
03:00+17wnw11915 0.4 101812
06:00+18wnw11870 0.0 101952
09:00+24w23594 0.0 1018551
12:00+27w35455 0.0 10181654
15:00+29w463966 0.0 10182167
18:00+27nw24511 0.0 1018208
21:00+20n22730 0.0 101926
10 august, tue
tue1000:00+18nne1176100 0.0 101911
03:00+17nne1179100 0.0 102011
06:00+19nne117698 0.0 102028
09:00+23ene116294 0.0 1020253
12:00+27e214797 0.0 1019967
15:00+23s116285 0.0 101921
18:00+24w2260100 0.0 101835
21:00+21w2468100 0.0 101997